TimePDT,TemperatureF,Dew PointF,Humidity,Sea Level PressureIn,VisibilityMPH,Wind Direction,Wind SpeedMPH,Gust SpeedMPH,PrecipitationIn,Events,Conditions,WindDirDegrees,DateUTC
12:53 AM,45.0,35.1,68,29.64,10.0,East,4.6,-,N/A,,Overcast,90,2014-04-01 07:53:00
1:53 AM,48.0,33.1,56,29.63,10.0,Calm,Calm,-,N/A,,Overcast,0,2014-04-01 08:53:00
2:53 AM,42.1,34.0,73,29.64,10.0,Calm,Calm,-,N/A,,Mostly Cloudy,0,2014-04-01 09:53:00
3:53 AM,42.1,34.0,73,29.63,10.0,East,3.5,-,N/A,,Scattered Clouds,90,2014-04-01 10:53:00
4:53 AM,41.0,35.1,79,29.63,10.0,Calm,Calm,-,N/A,,Overcast,0,2014-04-01 11:53:00
5:53 AM,42.1,36.0,79,29.64,10.0,West,4.6,-,N/A,,Overcast,270,2014-04-01 12:53:00
6:53 AM,42.1,35.1,76,29.67,10.0,Calm,Calm,-,N/A,,Mostly Cloudy,0,2014-04-01 13:53:00
7:53 AM,42.1,37.0,82,29.68,10.0,Calm,Calm,-,N/A,,Overcast,0,2014-04-01 14:53:00
8:53 AM,42.1,37.0,82,29.70,9.0,South,4.6,-,N/A,,Overcast,180,2014-04-01 15:53:00
9:53 AM,46.0,37.9,73,29.71,10.0,West,9.2,-,N/A,,Overcast,260,2014-04-01 16:53:00
10:53 AM,46.9,37.0,68,29.72,10.0,West,11.5,-,N/A,,Mostly Cloudy,280,2014-04-01 17:53:00
11:53 AM,48.9,36.0,61,29.74,10.0,West,6.9,-,N/A,,Scattered Clouds,280,2014-04-01 18:53:00
12:10 PM,48.9,37.0,64,29.74,10.0,West,9.2,-,N/A,,Mostly Cloudy,270,2014-04-01 19:10:00
12:21 PM,48.9,37.0,64,29.74,10.0,West,8.1,-,N/A,,Scattered Clouds,280,2014-04-01 19:21:00
12:53 PM,50.0,35.1,57,29.73,10.0,West,10.4,-,N/A,,Partly Cloudy,280,2014-04-01 19:53:00
1:53 PM,50.0,35.1,57,29.73,10.0,WNW,9.2,-,N/A,,Mostly Cloudy,300,2014-04-01 20:53:00
2:53 PM,51.1,33.1,50,29.73,10.0,West,3.5,-,N/A,,Partly Cloudy,280,2014-04-01 21:53:00
3:53 PM,53.1,34.0,48,29.72,10.0,WNW,5.8,-,N/A,,Clear,290,2014-04-01 22:53:00
4:53 PM,53.1,34.0,48,29.73,10.0,WNW,5.8,-,N/A,,Clear,300,2014-04-01 23:53:00
5:53 PM,51.1,36.0,56,29.73,10.0,West,11.5,-,N/A,,Clear,260,2014-04-02 00:53:00
6:53 PM,48.9,37.9,66,29.74,10.0,West,11.5,-,N/A,,Clear,270,2014-04-02 01:53:00
7:53 PM,46.0,37.9,73,29.75,10.0,West,6.9,-,N/A,,Clear,270,2014-04-02 02:53:00
8:53 PM,44.1,37.0,76,29.77,10.0,WSW,4.6,-,N/A,,Clear,240,2014-04-02 03:53:00
9:53 PM,43.0,36.0,76,29.78,10.0,WSW,4.6,-,N/A,,Clear,250,2014-04-02 04:53:00
10:53 PM,42.1,36.0,79,29.78,10.0,SE,4.6,-,N/A,,Clear,140,2014-04-02 05:53:00
11:53 PM,39.9,36.0,86,29.79,10.0,SSE,5.8,-,N/A,,Clear,150,2014-04-02 06:53:00